Pine Bluffs, WY

12:39 PM MST on February 26, 2017 (GMT -0700)
Pine Bluffs Muni, Pine Bluffs

Weather History for K82V - February, 2014

Change the Weather History Date:

Saturday, February 22, 2014

  Actual Average (KCYS) Record (KCYS)
Temperature  
Mean Temperature 26 °F -  
Max Temperature 33 °F 44 °F 67 °F (1958)
Min Temperature 19 °F 20 °F -13 °F (1913)
Degree Days  
Heating Degree Days 39    
Moisture  
Dew Point 24 °F    
Average Humidity 93    
Maximum Humidity 100    
Minimum Humidity 75    
Precipitation  
Precipitation 0.00 in - - ()
Sea Level Pressure  
Sea Level Pressure 29.88 in    
Wind  
Wind Speed 5 mph (NNW)    
Max Wind Speed 15 mph    
Max Gust Speed 18 mph    
Visibility 8 miles    
Events Snow    
Averages and records for this station are not official NWS values.
T = Trace of Precipitation, MM = Missing Value Source: NWS Daily Summary

Daily Weather History Graph

Daily Weather History Graph

Search for Another Location

Airport or City:

Trip Planner

Search our weather history database for the weather conditions in past years. The results will help you decide how hot, cold, wet, or windy it might be!

Date:

Astronomy

Feb. 22, 2014 Rise Set
Actual Time 6:41 AM MST 5:39 PM MST
Civil Twilight 6:13 AM MST 6:07 PM MST
Nautical Twilight 5:41 AM MST 6:39 PM MST
Astronomical Twilight 5:09 AM MST 7:11 PM MST
Moon 12:40 AM MST (2/22) 10:50 AM MST (2/22)
Length of Visible Light 11h 53m
Length of Day
10h 58m
Waning Gibbous, 49% of the Moon is Illuminated
Feb 22
Waning Gibbous
Mar 1
New
Mar 8
First Quarter
Mar 16
Full
Mar 23
Last Quarter

Hourly Weather History & Observations

Time (MST) Temp. Windchill Dew Point Humidity Pressure Visibility Wind Dir Wind Speed Gust Speed Precip Events Conditions
12:15 AM 21.2 °F 14.9 °F 19.4 °F 93% 29.86 in 10.0 mi North 4.6 mph - N/A   Clear
12:35 AM 21.2 °F - 21.2 °F 100% 29.87 in 10.0 mi Calm Calm - N/A   Mostly Cloudy
12:55 AM 23.0 °F 18.4 °F 21.2 °F 93% 29.86 in 10.0 mi NW 3.5 mph - N/A   Mostly Cloudy
1:15 AM 23.0 °F 18.4 °F 21.2 °F 93% 29.86 in 10.0 mi NW 3.5 mph - N/A   Mostly Cloudy
1:35 AM 23.0 °F - 21.2 °F 93% 29.86 in 10.0 mi Calm Calm - N/A   Scattered Clouds
1:55 AM 21.2 °F 14.9 °F 19.4 °F 93% 29.85 in 10.0 mi NW 4.6 mph - N/A   Mostly Cloudy
2:15 AM 21.2 °F - 21.2 °F 100% 29.84 in 10.0 mi Calm Calm - N/A   Overcast
2:35 AM 21.2 °F - 19.4 °F 93% 29.84 in 10.0 mi Calm Calm - N/A   Scattered Clouds
2:55 AM 21.2 °F - 19.4 °F 93% 29.84 in 10.0 mi Calm Calm - N/A   Mostly Cloudy
3:15 AM 21.2 °F - 19.4 °F 93% 29.84 in 10.0 mi Calm Calm - N/A   Scattered Clouds
3:35 AM 19.4 °F - 17.6 °F 93% 29.84 in 10.0 mi Calm Calm - N/A   Clear
3:55 AM 19.4 °F 10.4 °F 17.6 °F 93% 29.84 in 10.0 mi South 6.9 mph - N/A   Clear
4:15 AM 19.4 °F - 17.6 °F 93% 29.84 in 10.0 mi Calm Calm - N/A   Clear
4:35 AM 19.4 °F - 19.4 °F 100% 29.84 in 10.0 mi Calm Calm - N/A   Clear
4:55 AM 21.2 °F 16.4 °F 19.4 °F 93% 29.84 in 10.0 mi South 3.5 mph - N/A   Clear
5:15 AM 21.2 °F 11.7 °F 19.4 °F 93% 29.84 in 10.0 mi South 8.1 mph - N/A   Clear
5:35 AM 23.0 °F 17.0 °F 21.2 °F 93% 29.84 in 10.0 mi SSW 4.6 mph - N/A   Mostly Cloudy
5:55 AM 23.0 °F 14.7 °F 21.2 °F 93% 29.84 in 10.0 mi SSW 6.9 mph - N/A   Overcast
6:15 AM 23.0 °F 13.1 °F 23.0 °F 100% 29.84 in 10.0 mi SSW 9.2 mph - N/A   Overcast
6:35 AM 24.8 °F 13.4 °F 23.0 °F 93% 29.83 in 10.0 mi SSW 12.7 mph - N/A   Overcast
6:55 AM 24.8 °F 16.9 °F 23.0 °F 93% 29.84 in 10.0 mi SSW 6.9 mph - N/A   Overcast
7:15 AM 24.8 °F 20.5 °F 23.0 °F 93% 29.84 in 10.0 mi SSW 3.5 mph - N/A   Overcast
7:35 AM 26.6 °F 22.6 °F 23.0 °F 86% 29.84 in 10.0 mi South 3.5 mph - N/A   Overcast
7:55 AM 26.6 °F 21.2 °F 23.0 °F 86% 29.85 in 10.0 mi South 4.6 mph - N/A   Overcast
8:15 AM 26.6 °F 20.0 °F 24.8 °F 93% 29.85 in 10.0 mi South 5.8 mph - N/A   Overcast
8:35 AM 26.6 °F 19.1 °F 26.6 °F 100% 29.85 in 10.0 mi South 6.9 mph - N/A   Overcast
8:55 AM 28.4 °F 22.2 °F 26.6 °F 93% 29.86 in 10.0 mi South 5.8 mph - N/A   Overcast
9:15 AM 28.4 °F 21.2 °F 26.6 °F 93% 29.86 in 10.0 mi South 6.9 mph - N/A   Overcast
9:35 AM 28.4 °F 24.6 °F 26.6 °F 93% 29.86 in 10.0 mi SW 3.5 mph - N/A   Overcast
9:55 AM 32.0 °F 23.6 °F 30.2 °F 93% 29.86 in 7.0 mi NW 10.4 mph - N/A   Overcast
10:15 AM 32.0 °F 22.1 °F 30.2 °F 93% 29.84 in 10.0 mi NNW 13.8 mph - N/A   Mostly Cloudy
10:35 AM 32.0 °F 23.6 °F 28.4 °F 87% 29.84 in 10.0 mi North 10.4 mph - N/A   Scattered Clouds
10:55 AM 32.0 °F 24.2 °F 26.6 °F 80% 29.84 in 10.0 mi North 9.2 mph - N/A   Clear
11:15 AM 32.0 °F 24.8 °F 26.6 °F 80% 29.83 in 10.0 mi NNE 8.1 mph - N/A   Scattered Clouds
11:35 AM 32.0 °F 25.6 °F 26.6 °F 80% 29.83 in 10.0 mi North 6.9 mph - N/A   Mostly Cloudy
11:55 AM 33.8 °F 25.3 °F 26.6 °F 75% 29.83 in 10.0 mi NNW 11.5 mph - N/A   Mostly Cloudy
12:15 PM 33.8 °F 25.8 °F 26.6 °F 75% 29.82 in 10.0 mi North 10.4 mph - N/A   Overcast
12:35 PM 32.0 °F 21.6 °F 26.6 °F 80% 29.82 in 10.0 mi North 15.0 mph - N/A   Overcast
12:55 PM 30.2 °F 21.3 °F 28.4 °F 93% 29.83 in 3.0 mi North 10.4 mph - N/A Snow Light Snow
1:15 PM 30.2 °F 20.8 °F 28.4 °F 93% 29.83 in 2.5 mi NNE 11.5 mph - N/A Snow Light Snow
1:35 PM 28.4 °F 20.4 °F 28.4 °F 100% 29.83 in 1.2 mi North 8.1 mph - N/A Snow Light Snow
1:55 PM 28.4 °F 20.4 °F 28.4 °F 100% 29.83 in 1.0 mi NNE 8.1 mph - N/A Snow Light Snow
2:15 PM 28.4 °F 20.4 °F 26.6 °F 93% 29.83 in 5.0 mi NE 8.1 mph - N/A Snow Light Snow
2:35 PM 28.4 °F 21.2 °F 26.6 °F 93% 29.83 in 7.0 mi NE 6.9 mph - N/A Snow Light Snow
2:55 PM 28.4 °F - 26.6 °F 93% 29.84 in 3.0 mi Calm Calm - N/A Snow Light Snow
3:15 PM 28.4 °F 21.2 °F 26.6 °F 93% 29.84 in 2.0 mi NE 6.9 mph - N/A Snow Light Snow
3:35 PM 28.4 °F 21.2 °F 26.6 °F 93% 29.84 in 4.0 mi NNE 6.9 mph - N/A Snow Light Snow
3:55 PM 28.4 °F 20.4 °F 26.6 °F 93% 29.85 in 2.5 mi NNE 8.1 mph - N/A Snow Light Snow
4:15 PM 26.6 °F 16.8 °F 26.6 °F 100% 29.86 in 1.5 mi North 10.4 mph - N/A Snow Light Snow
4:35 PM 26.6 °F 16.2 °F 26.6 °F 100% 29.86 in 2.0 mi North 11.5 mph - N/A Snow Light Snow
4:55 PM 26.6 °F 16.8 °F 24.8 °F 93% 29.86 in 3.0 mi North 10.4 mph - N/A Snow Light Snow
5:15 PM 26.6 °F 19.1 °F 24.8 °F 93% 29.88 in 2.0 mi North 6.9 mph - N/A Snow Light Snow
5:35 PM 26.6 °F 21.2 °F 24.8 °F 93% 29.90 in 0.8 mi NNW 4.6 mph - N/A Snow Light Snow
5:55 PM 26.6 °F 18.2 °F 24.8 °F 93% 29.90 in 1.8 mi North 8.1 mph - N/A Snow Light Snow
6:15 PM 26.6 °F 16.8 °F 24.8 °F 93% 29.91 in 2.5 mi North 10.4 mph - N/A Snow Light Snow
6:35 PM 26.6 °F 18.2 °F 23.0 °F 86% 29.92 in 3.0 mi North 8.1 mph - N/A Snow Light Snow
6:55 PM 24.8 °F 16.9 °F 23.0 °F 93% 29.93 in 4.0 mi North 6.9 mph - N/A Snow Light Snow
7:15 PM 24.8 °F 17.9 °F 23.0 °F 93% 29.94 in 7.0 mi NNW 5.8 mph - N/A Snow Light Snow
7:35 PM 24.8 °F 17.9 °F 23.0 °F 93% 29.95 in 10.0 mi NNW 5.8 mph - N/A   Overcast
7:55 PM 23.0 °F 17.0 °F 23.0 °F 100% 29.95 in 10.0 mi North 4.6 mph - N/A   Overcast
8:15 PM 23.0 °F 17.0 °F 21.2 °F 93% 29.97 in 10.0 mi North 4.6 mph - N/A   Overcast
8:35 PM 23.0 °F 17.0 °F 21.2 °F 93% 29.98 in 10.0 mi NNW 4.6 mph - N/A   Overcast
8:55 PM 23.0 °F 15.8 °F 23.0 °F 100% 29.98 in 10.0 mi NNW 5.8 mph - N/A   Overcast
9:15 PM 24.8 °F 17.9 °F 23.0 °F 93% 29.98 in 10.0 mi North 5.8 mph - N/A   Overcast
9:35 PM 24.8 °F 16.9 °F 23.0 °F 93% 29.99 in 10.0 mi NNE 6.9 mph - N/A   Overcast
9:55 PM 23.0 °F 14.7 °F 21.2 °F 93% 29.99 in 10.0 mi North 6.9 mph 18.4 mph N/A   Overcast
10:15 PM 21.2 °F 10.1 °F 21.2 °F 100% 29.99 in 10.0 mi NNW 10.4 mph - N/A   Overcast
10:35 PM 21.2 °F 11.7 °F 19.4 °F 93% 29.99 in 10.0 mi North 8.1 mph - N/A   Overcast
10:55 PM 21.2 °F 12.6 °F 21.2 °F 100% 29.99 in 10.0 mi North 6.9 mph - N/A   Overcast
11:15 PM 21.2 °F 12.6 °F 19.4 °F 93% 29.98 in 3.0 mi NNW 6.9 mph - N/A Snow Light Snow
11:35 PM 21.2 °F 16.4 °F 19.4 °F 93% 29.98 in 1.2 mi North 3.5 mph - N/A Snow Light Snow
11:55 PM 21.2 °F 14.9 °F 21.2 °F 100% 29.99 in 0.8 mi NW 4.6 mph - N/A Snow Snow